Location: Park Creek Village Mobile Home Park
(38.2885°N, 122.4714°W)
Time: 19:43:02
(UTC+00:00)

Cosmos 1378 Rocket - Pass Details

Date: 14 December 2019
Orbit: 602 x 627 km, 82.5° (Epoch: 21 January)

Event Time Altitude Azimuth Distance (km) Brightness Sun altitude
Rises 14:22:57 0° 352° (N) 2,909 6.7 -10.7°
Reaches altitude 10° 14:25:11 10° 352° (N) 2,001 5.9 -10.3°
Maximum altitude 14:29:38 88° 272° (W) 631 3.6 -9.5°
Drops below altitude 10° 14:34:04 10° 175° (S) 1,993 6.6 -8.7°
Sets 14:36:17 0° 175° (S) 2,896 7.4 -8.3°
